DLH28X EDDF-LFPG

Flight info

Callsign DLH28X
Flight time 0h 54m
Altitude 24000
Route SOBRA2L SOBRA Y180 DIK UN857 TOLVU/N0399F230 DCT RAPOR DCT VEDUS
Aircraft A321/M-SDE2E3FGIJ1LORWXYZ/HB1

Departure

Time 2026-05-08 19:27
Airport Frankfurt Main Airport (EDDF)

Arrival

Time 2026-05-08 20:21
Airport Charles de Gaulle International Airport (LFPG)
Time Latitude Longitude Altitude Speed Heading
2026-05-08 18:52 50.04901 8.59110 371 ft 0 kts 339°
2026-05-08 19:16 50.04885 8.59119 367 ft 4 kts 339°
2026-05-08 19:16 50.04859 8.59134 368 ft 4 kts 339°
2026-05-08 19:16 50.04834 8.59148 369 ft 4 kts 339°
2026-05-08 19:17 50.04823 8.59154 368 ft 0 kts 339°
2026-05-08 19:19 50.04824 8.59154 368 ft 1 kts 339°
2026-05-08 19:19 50.04824 8.59126 368 ft 5 kts 247°
2026-05-08 19:19 50.04793 8.59040 371 ft 15 kts 246°
2026-05-08 19:20 50.04744 8.58837 371 ft 23 kts 250°
2026-05-08 19:20 50.04724 8.58758 372 ft 23 kts 248°
2026-05-08 19:20 50.04622 8.58350 370 ft 25 kts 249°
2026-05-08 19:20 50.04558 8.58073 365 ft 29 kts 250°
2026-05-08 19:21 50.04487 8.57778 365 ft 29 kts 249°
2026-05-08 19:21 50.04425 8.57521 363 ft 27 kts 250°
2026-05-08 19:21 50.04359 8.57245 366 ft 28 kts 249°
2026-05-08 19:21 50.04290 8.56956 365 ft 29 kts 249°
2026-05-08 19:22 50.04217 8.56651 359 ft 31 kts 250°
2026-05-08 19:22 50.04142 8.56339 358 ft 23 kts 249°
2026-05-08 19:22 50.04084 8.56097 357 ft 25 kts 249°
2026-05-08 19:22 50.04021 8.55836 357 ft 27 kts 249°
2026-05-08 19:23 50.03954 8.55557 350 ft 28 kts 250°
2026-05-08 19:23 50.03885 8.55266 351 ft 29 kts 250°
2026-05-08 19:23 50.03822 8.54996 358 ft 27 kts 250°
2026-05-08 19:23 50.03755 8.54716 348 ft 29 kts 250°
2026-05-08 19:24 50.03682 8.54414 350 ft 31 kts 250°
2026-05-08 19:24 50.03613 8.54117 347 ft 28 kts 249°
2026-05-08 19:24 50.03541 8.53821 339 ft 30 kts 249°
2026-05-08 19:24 50.03469 8.53525 335 ft 29 kts 249°
2026-05-08 19:25 50.03397 8.53225 335 ft 30 kts 250°
2026-05-08 19:25 50.03328 8.52930 332 ft 27 kts 250°
2026-05-08 19:25 50.03264 8.52685 334 ft 22 kts 241°
2026-05-08 19:25 50.03131 8.52596 336 ft 22 kts 177°
2026-05-08 19:26 50.02977 8.52598 335 ft 16 kts 179°
2026-05-08 19:26 50.02955 8.52598 335 ft 0 kts 179°
2026-05-08 19:26 50.02941 8.52599 335 ft 6 kts 179°
2026-05-08 19:26 50.02640 8.52601 334 ft 85 kts 180°
2026-05-08 19:27 50.01795 8.52611 335 ft 154 kts 179°
2026-05-08 19:27 50.00675 8.52598 968 ft 157 kts 180°
2026-05-08 19:27 49.99580 8.52579 1700 ft 161 kts 176°
2026-05-08 19:27 49.98394 8.52629 2109 ft 179 kts 175°
2026-05-08 19:28 49.97079 8.52737 2437 ft 200 kts 174°
2026-05-08 19:28 49.95608 8.52877 2720 ft 222 kts 174°
2026-05-08 19:28 49.94026 8.53017 3276 ft 230 kts 175°
2026-05-08 19:28 49.92419 8.53146 3993 ft 232 kts 175°
2026-05-08 19:29 49.90801 8.53270 4710 ft 234 kts 176°
2026-05-08 19:29 49.89157 8.53391 5463 ft 238 kts 178°
2026-05-08 19:29 49.87501 8.53509 6352 ft 239 kts 179°
2026-05-08 19:29 49.85841 8.53623 7198 ft 240 kts 179°
2026-05-08 19:30 49.84164 8.53734 8001 ft 243 kts 179°
2026-05-08 19:30 49.82466 8.53846 8792 ft 246 kts 179°
2026-05-08 19:30 49.80747 8.53956 9578 ft 249 kts 182°
2026-05-08 19:30 49.79054 8.53467 10291 ft 250 kts 206°
2026-05-08 19:31 49.77667 8.51881 10986 ft 251 kts 232°
2026-05-08 19:31 49.76896 8.49473 11670 ft 254 kts 258°
2026-05-08 19:31 49.76906 8.46740 12357 ft 259 kts 279°
2026-05-08 19:31 49.77248 8.43979 12939 ft 264 kts 279°
2026-05-08 19:32 49.77591 8.41184 13073 ft 265 kts 279°
2026-05-08 19:32 49.77930 8.38387 13186 ft 266 kts 279°
2026-05-08 19:32 49.78271 8.35557 13824 ft 273 kts 279°
2026-05-08 19:32 49.78523 8.33593 13959 ft 288 kts 280°
2026-05-08 19:33 49.78947 8.30433 14126 ft 311 kts 281°
2026-05-08 19:33 49.79417 8.27039 14253 ft 333 kts 281°
2026-05-08 19:33 49.79920 8.23424 14377 ft 354 kts 281°
2026-05-08 19:33 49.80450 8.19598 14500 ft 373 kts 281°
2026-05-08 19:34 49.80997 8.15605 14812 ft 384 kts 281°
2026-05-08 19:34 49.81550 8.11529 15328 ft 389 kts 281°
2026-05-08 19:34 49.82104 8.07423 15900 ft 391 kts 281°
2026-05-08 19:34 49.82661 8.03282 16474 ft 394 kts 281°
2026-05-08 19:35 49.83218 7.99117 17037 ft 396 kts 281°
2026-05-08 19:35 49.83778 7.94930 17606 ft 399 kts 281°
2026-05-08 19:35 49.84341 7.90712 18154 ft 401 kts 281°
2026-05-08 19:35 49.84903 7.86467 18651 ft 403 kts 281°
2026-05-08 19:36 49.85466 7.82197 19119 ft 406 kts 281°
2026-05-08 19:36 49.86030 7.77897 19583 ft 408 kts 281°
2026-05-08 19:36 49.86632 7.73586 20064 ft 411 kts 282°
2026-05-08 19:36 49.87297 7.69255 20530 ft 414 kts 283°
2026-05-08 19:37 49.87992 7.64910 20994 ft 417 kts 283°
2026-05-08 19:37 49.88643 7.60513 21444 ft 419 kts 277°
2026-05-08 19:37 49.88679 7.56007 21891 ft 420 kts 263°
2026-05-08 19:37 49.88347 7.51492 22348 ft 422 kts 263°
2026-05-08 19:38 49.87995 7.46964 22802 ft 425 kts 262°
2026-05-08 19:38 49.87628 7.42403 23249 ft 427 kts 262°
2026-05-08 19:38 49.87254 7.37821 23687 ft 430 kts 262°
2026-05-08 19:38 49.86877 7.33212 24007 ft 432 kts 262°
2026-05-08 19:39 49.86505 7.28578 24098 ft 435 kts 262°
2026-05-08 19:39 49.86135 7.23906 24114 ft 438 kts 262°
2026-05-08 19:39 49.85763 7.19217 24111 ft 439 kts 262°
2026-05-08 19:39 49.85385 7.14519 24111 ft 439 kts 262°
2026-05-08 19:40 49.84996 7.09832 24114 ft 439 kts 262°
2026-05-08 19:40 49.84599 7.05142 24117 ft 439 kts 262°
2026-05-08 19:40 49.84198 7.00452 24111 ft 439 kts 262°
2026-05-08 19:40 49.83799 6.95761 24111 ft 439 kts 262°
2026-05-08 19:41 49.83402 6.91072 24108 ft 439 kts 262°
2026-05-08 19:41 49.83004 6.86383 24106 ft 439 kts 262°
2026-05-08 19:41 49.82606 6.81705 24104 ft 439 kts 262°
2026-05-08 19:41 49.82204 6.77018 24105 ft 439 kts 262°
2026-05-08 19:42 49.81803 6.72336 24099 ft 439 kts 262°
2026-05-08 19:42 49.81403 6.67651 24089 ft 439 kts 262°
2026-05-08 19:42 49.81002 6.62967 24086 ft 439 kts 262°
2026-05-08 19:42 49.80600 6.58281 24084 ft 439 kts 262°
2026-05-08 19:43 49.80192 6.53599 24086 ft 439 kts 262°
2026-05-08 19:43 49.79779 6.48917 24086 ft 439 kts 262°
2026-05-08 19:43 49.79364 6.44235 24087 ft 439 kts 262°
2026-05-08 19:43 49.78949 6.39547 24086 ft 439 kts 262°
2026-05-08 19:44 49.78530 6.34867 24088 ft 439 kts 262°
2026-05-08 19:44 49.78111 6.30189 24091 ft 439 kts 262°
2026-05-08 19:44 49.77691 6.25505 24088 ft 440 kts 262°
2026-05-08 19:44 49.77268 6.20819 24086 ft 440 kts 262°
2026-05-08 19:45 49.76843 6.16134 24086 ft 440 kts 262°
2026-05-08 19:45 49.76417 6.11442 24086 ft 440 kts 262°
2026-05-08 19:45 49.75993 6.06754 24085 ft 441 kts 262°
2026-05-08 19:45 49.75570 6.02053 24085 ft 441 kts 262°
2026-05-08 19:46 49.75144 5.97367 24085 ft 441 kts 262°
2026-05-08 19:46 49.74712 5.92671 24085 ft 441 kts 262°
2026-05-08 19:46 49.73379 5.83446 24080 ft 441 kts 251°
2026-05-08 19:47 49.72339 5.78980 24076 ft 442 kts 251°
2026-05-08 19:47 49.71297 5.74505 24075 ft 442 kts 251°
2026-05-08 19:47 49.70254 5.70038 24074 ft 443 kts 251°
2026-05-08 19:47 49.69441 5.65464 24069 ft 442 kts 260°
2026-05-08 19:48 49.68902 5.60796 24076 ft 442 kts 261°
2026-05-08 19:48 49.68365 5.56121 24078 ft 442 kts 261°
2026-05-08 19:48 49.67826 5.51447 24078 ft 442 kts 260°
2026-05-08 19:48 49.67288 5.46774 24079 ft 443 kts 260°
2026-05-08 19:49 49.66747 5.42100 24080 ft 443 kts 261°
2026-05-08 19:49 49.66201 5.37420 24071 ft 443 kts 260°
2026-05-08 19:49 49.65651 5.32742 24069 ft 443 kts 260°
2026-05-08 19:49 49.65100 5.28058 24069 ft 444 kts 261°
2026-05-08 19:50 49.64546 5.23371 24070 ft 445 kts 260°
2026-05-08 19:50 49.63987 5.18677 24071 ft 445 kts 260°
2026-05-08 19:50 49.63428 5.13994 24100 ft 455 kts 260°
2026-05-08 19:50 49.62845 5.09138 24099 ft 466 kts 260°
2026-05-08 19:51 49.62254 5.04191 24098 ft 470 kts 260°
2026-05-08 19:51 49.61660 4.99222 24097 ft 471 kts 260°
2026-05-08 19:51 49.61055 4.94188 24089 ft 472 kts 261°
2026-05-08 19:51 49.60638 4.89171 24092 ft 472 kts 271°
2026-05-08 19:52 49.61061 4.84187 24101 ft 469 kts 287°
2026-05-08 19:52 49.62364 4.79608 24101 ft 467 kts 303°
2026-05-08 19:52 49.64370 4.75692 24105 ft 466 kts 312°
2026-05-08 19:52 49.66532 4.71960 24100 ft 467 kts 313°
2026-05-08 19:53 49.68704 4.68235 24098 ft 467 kts 313°
2026-05-08 19:53 49.70850 4.64557 24099 ft 467 kts 313°
2026-05-08 19:53 49.73024 4.60828 24097 ft 467 kts 313°
2026-05-08 19:53 49.75200 4.57095 24096 ft 465 kts 313°
2026-05-08 19:54 49.77336 4.53423 24097 ft 441 kts 313°
2026-05-08 19:54 49.79329 4.49982 24098 ft 421 kts 313°
2026-05-08 19:54 49.81250 4.46614 24106 ft 415 kts 313°
2026-05-08 19:54 49.83000 4.43076 24108 ft 415 kts 301°
2026-05-08 19:55 49.84085 4.38931 24107 ft 418 kts 285°
2026-05-08 19:55 49.84347 4.34435 24107 ft 423 kts 268°
2026-05-08 19:55 49.83738 4.29978 24107 ft 427 kts 250°
2026-05-08 19:55 49.82292 4.25952 23991 ft 432 kts 236°
2026-05-08 19:56 49.80513 4.22225 23539 ft 426 kts 234°
2026-05-08 19:56 49.78718 4.18584 23260 ft 426 kts 233°
2026-05-08 19:56 49.76904 4.14968 22979 ft 424 kts 233°
2026-05-08 19:56 49.75115 4.11422 22710 ft 423 kts 233°
2026-05-08 19:57 49.73318 4.07843 22430 ft 420 kts 233°
2026-05-08 19:57 49.71539 4.04274 22156 ft 418 kts 233°
2026-05-08 19:57 49.69773 4.00712 21903 ft 417 kts 233°
2026-05-08 19:57 49.68017 3.97165 21635 ft 414 kts 233°
2026-05-08 19:58 49.66272 3.93644 21373 ft 412 kts 233°
2026-05-08 19:58 49.64537 3.90137 21114 ft 409 kts 235°
2026-05-08 19:58 49.63101 3.86378 20856 ft 406 kts 243°
2026-05-08 19:58 49.61775 3.82481 20596 ft 404 kts 243°
2026-05-08 19:59 49.60468 3.78647 20277 ft 402 kts 243°
2026-05-08 19:59 49.59170 3.74844 19896 ft 399 kts 243°
2026-05-08 19:59 49.57898 3.71119 19535 ft 397 kts 243°
2026-05-08 19:59 49.56619 3.67376 19173 ft 394 kts 243°
2026-05-08 20:00 49.55348 3.63663 18807 ft 390 kts 242°
2026-05-08 20:00 49.54085 3.59982 18453 ft 388 kts 242°
2026-05-08 20:00 49.52824 3.56322 18068 ft 386 kts 241°
2026-05-08 20:00 49.51571 3.52688 17670 ft 383 kts 242°
2026-05-08 20:01 49.50328 3.49083 17263 ft 380 kts 242°
2026-05-08 20:01 49.49092 3.45498 16868 ft 378 kts 242°
2026-05-08 20:01 49.47861 3.41939 16475 ft 376 kts 242°
2026-05-08 20:01 49.46638 3.38405 16081 ft 372 kts 242°
2026-05-08 20:02 49.45430 3.34906 15703 ft 370 kts 242°
2026-05-08 20:02 49.44208 3.31376 15330 ft 368 kts 242°
2026-05-08 20:02 49.43011 3.27922 15081 ft 366 kts 242°
2026-05-08 20:02 49.41814 3.24481 15084 ft 365 kts 242°
2026-05-08 20:03 49.40628 3.21085 15084 ft 366 kts 242°
2026-05-08 20:03 49.39422 3.17654 15084 ft 366 kts 241°
2026-05-08 20:03 49.38212 3.14221 15084 ft 365 kts 241°
2026-05-08 20:03 49.37006 3.10792 15085 ft 365 kts 241°
2026-05-08 20:04 49.35801 3.07361 15085 ft 366 kts 241°
2026-05-08 20:04 49.34594 3.03928 15084 ft 366 kts 241°
2026-05-08 20:04 49.33386 3.00499 15084 ft 366 kts 241°
2026-05-08 20:04 49.32180 2.97066 15084 ft 366 kts 241°
2026-05-08 20:05 49.30973 2.93630 15084 ft 366 kts 241°
2026-05-08 20:05 49.29753 2.90155 15084 ft 366 kts 241°
2026-05-08 20:05 49.28541 2.86715 14564 ft 368 kts 241°
2026-05-08 20:05 49.27343 2.83326 14023 ft 362 kts 241°
2026-05-08 20:06 49.26156 2.79981 13493 ft 354 kts 241°
2026-05-08 20:06 49.24988 2.76701 12871 ft 349 kts 241°
2026-05-08 20:06 49.23837 2.73470 12382 ft 340 kts 241°
2026-05-08 20:06 49.22743 2.70394 12245 ft 316 kts 241°
2026-05-08 20:07 49.21730 2.67552 12069 ft 294 kts 241°
2026-05-08 20:07 49.20767 2.64862 11584 ft 285 kts 242°
2026-05-08 20:07 49.19824 2.62212 11166 ft 283 kts 242°
2026-05-08 20:07 49.18900 2.59545 11058 ft 284 kts 246°
2026-05-08 20:08 49.18257 2.56688 11083 ft 285 kts 257°
2026-05-08 20:08 49.18009 2.53684 11082 ft 285 kts 268°
2026-05-08 20:08 49.17955 2.50650 11083 ft 286 kts 268°
2026-05-08 20:08 49.17893 2.47617 11081 ft 286 kts 268°
2026-05-08 20:09 49.17824 2.44566 10742 ft 289 kts 268°
2026-05-08 20:09 49.17753 2.41516 10205 ft 283 kts 268°
2026-05-08 20:09 49.17683 2.38541 9645 ft 278 kts 268°
2026-05-08 20:09 49.17621 2.35600 9025 ft 275 kts 268°
2026-05-08 20:10 49.17586 2.32707 8594 ft 266 kts 269°
2026-05-08 20:10 49.17566 2.29981 8439 ft 248 kts 268°
2026-05-08 20:10 49.17546 2.27388 8070 ft 241 kts 268°
2026-05-08 20:10 49.17524 2.24831 7575 ft 241 kts 268°
2026-05-08 20:11 49.17499 2.22271 7128 ft 239 kts 268°
2026-05-08 20:11 49.17471 2.19735 7010 ft 240 kts 268°
2026-05-08 20:11 49.17443 2.17189 6704 ft 238 kts 268°
2026-05-08 20:11 49.17339 2.14676 6181 ft 236 kts 254°
2026-05-08 20:12 49.16564 2.12515 5749 ft 233 kts 227°
2026-05-08 20:12 49.15433 2.10729 5346 ft 234 kts 222°
2026-05-08 20:12 49.14258 2.08996 4961 ft 235 kts 221°
2026-05-08 20:12 49.13078 2.07270 4594 ft 235 kts 222°
2026-05-08 20:13 49.11894 2.05547 4224 ft 235 kts 222°
2026-05-08 20:13 49.10702 2.03858 4008 ft 232 kts 215°
2026-05-08 20:13 49.09234 2.02903 4009 ft 232 kts 187°
2026-05-08 20:13 49.07632 2.02617 4008 ft 232 kts 182°
2026-05-08 20:14 49.06019 2.02430 4014 ft 233 kts 182°
2026-05-08 20:14 49.04925 2.02313 4010 ft 233 kts 182°
2026-05-08 20:14 49.02780 2.02143 4007 ft 232 kts 173°
2026-05-08 20:14 49.01300 2.02978 4010 ft 228 kts 140°
2026-05-08 20:15 49.00307 2.04815 4008 ft 226 kts 114°
2026-05-08 20:15 48.99982 2.06350 4009 ft 226 kts 97°
2026-05-08 20:15 49.00006 2.08732 4009 ft 226 kts 85°
2026-05-08 20:15 49.00152 2.11115 4009 ft 226 kts 85°
2026-05-08 20:16 49.00294 2.13501 4011 ft 226 kts 85°
2026-05-08 20:16 49.00431 2.15885 4009 ft 226 kts 85°
2026-05-08 20:16 49.00568 2.18270 4008 ft 226 kts 85°
2026-05-08 20:16 49.00703 2.20653 4006 ft 226 kts 85°
2026-05-08 20:17 49.00839 2.23044 4023 ft 226 kts 85°
2026-05-08 20:17 49.00974 2.25431 3851 ft 226 kts 85°
2026-05-08 20:17 49.01109 2.27811 3578 ft 224 kts 85°
2026-05-08 20:17 49.01239 2.30136 3292 ft 216 kts 85°
2026-05-08 20:18 49.01364 2.32365 3021 ft 206 kts 85°
2026-05-08 20:18 49.01481 2.34465 2750 ft 193 kts 85°
2026-05-08 20:18 49.01592 2.36452 2493 ft 183 kts 85°
2026-05-08 20:18 49.01697 2.38356 2252 ft 179 kts 85°
2026-05-08 20:19 49.01798 2.40177 2024 ft 164 kts 85°
2026-05-08 20:19 49.01891 2.41864 1804 ft 158 kts 84°
2026-05-08 20:19 49.01982 2.43515 1589 ft 154 kts 85°
2026-05-08 20:19 49.02067 2.45063 1386 ft 141 kts 84°
2026-05-08 20:20 49.02147 2.46530 1206 ft 137 kts 84°
2026-05-08 20:20 49.02227 2.47985 1019 ft 139 kts 83°
2026-05-08 20:20 49.02313 2.49452 815 ft 139 kts 82°
2026-05-08 20:20 49.02394 2.50910 619 ft 139 kts 84°
2026-05-08 20:21 49.02466 2.52375 419 ft 139 kts 84°
2026-05-08 20:21 49.02539 2.53812 363 ft 124 kts 83°
2026-05-08 20:21 49.02601 2.54859 356 ft 75 kts 85°
2026-05-08 20:21 49.02632 2.55404 357 ft 37 kts 84°
2026-05-08 20:22 49.02633 2.55774 360 ft 33 kts 107°
2026-05-08 20:22 49.02518 2.55936 354 ft 13 kts 168°
2026-05-08 20:22 49.02439 2.55951 355 ft 9 kts 175°
2026-05-08 20:22 49.02422 2.55954 355 ft 0 kts 174°
2026-05-08 20:25 49.02419 2.55954 355 ft 3 kts 174°
2026-05-08 20:25 49.02363 2.55962 356 ft 13 kts 175°
2026-05-08 20:25 49.02235 2.55977 354 ft 21 kts 175°
2026-05-08 20:25 49.02105 2.55946 358 ft 20 kts 227°
2026-05-08 20:26 49.02076 2.55735 361 ft 22 kts 265°
2026-05-08 20:26 49.02062 2.55500 361 ft 22 kts 264°
2026-05-08 20:26 49.02048 2.55263 354 ft 23 kts 266°
2026-05-08 20:26 49.02037 2.55007 355 ft 25 kts 266°
2026-05-08 20:27 49.02021 2.54735 355 ft 26 kts 265°
2026-05-08 20:27 49.02006 2.54449 357 ft 28 kts 265°
2026-05-08 20:27 49.01991 2.54233 355 ft 19 kts 258°
2026-05-08 20:27 49.01904 2.54133 357 ft 15 kts 181°
2026-05-08 20:28 49.01817 2.54068 357 ft 16 kts 239°
2026-05-08 20:28 49.01773 2.53905 359 ft 18 kts 243°
2026-05-08 20:28 49.01716 2.53816 360 ft 8 kts 188°
2026-05-08 20:28 49.01662 2.53824 357 ft 9 kts 171°
2026-05-08 20:29 49.01622 2.53834 355 ft 1 kts 170°
2026-05-08 20:29 49.01618 2.53835 362 ft 0 kts 170°